Location: Dalton Gardens
(47.7327°N, 116.7697°W)
Time: 13:37:04
(UTC+00:00)

Envisat - Pass Details

Date: 03 December 2022
Orbit: 763 x 765 km, 98.2° (Epoch: 31 January)

Event Time Altitude Azimuth Distance (km) Brightness Sun altitude
Rises 00:36:50 0° 218° (SW) 3,221 7.5 -6.7°
Reaches altitude 10° 00:40:25 10° 244° (WSW) 2,302 7.3 -7.3°
Maximum altitude 00:42:51 13° 273° (W) 2,077 6.3 -7.6°
Drops below altitude 10° 00:45:17 10° 302° (WNW) 2,311 6.0 -8.0°
Sets 00:48:54 0° 329° (NNW) 3,244 6.3 -8.6°
